Time,TemperatureF,DewpointF,PressureIn,WindDirection,WindDirectionDegrees,WindSpeedMPH,WindSpeedGustMPH,Humidity,HourlyPrecipIn,Conditions,Clouds,dailyrainin,SoftwareType,DateUTC
2013-05-19 00:01:00,74.8,65.6,30.00,SW,225,0.0,0.0,73,0.00,,,0.00,WSDL version 420,2013-05-19 04:01:00,
2013-05-19 00:06:00,74.7,65.4,30.00,SW,225,0.0,0.0,73,0.00,,,0.00,WSDL version 420,2013-05-19 04:06:00,
2013-05-19 00:11:00,74.6,65.7,30.00,SW,225,0.0,0.0,74,0.00,,,0.00,WSDL version 420,2013-05-19 04:11:00,
2013-05-19 00:16:00,74.5,65.7,30.00,SW,225,0.0,0.0,74,0.00,,,0.00,WSDL version 420,2013-05-19 04:16:00,
2013-05-19 00:21:00,74.5,65.7,30.00,SW,225,0.0,0.0,74,0.00,,,0.00,WSDL version 420,2013-05-19 04:21:00,
2013-05-19 00:26:00,74.3,65.8,30.00,SW,225,0.0,0.0,75,0.00,,,0.00,WSDL version 420,2013-05-19 04:26:00,
2013-05-19 00:31:00,74.3,65.9,30.00,SW,225,0.0,0.0,75,0.00,,,0.00,WSDL version 420,2013-05-19 04:31:00,
2013-05-19 00:36:00,74.3,65.9,30.00,SW,225,0.0,0.0,75,0.00,,,0.00,WSDL version 420,2013-05-19 04:36:00,
2013-05-19 00:41:00,74.3,65.9,30.00,SW,225,0.0,0.0,75,0.00,,,0.00,WSDL version 420,2013-05-19 04:41:00,
2013-05-19 00:46:00,74.2,65.9,30.00,SW,225,0.0,0.0,75,0.00,,,0.00,WSDL version 420,2013-05-19 04:46:00,
2013-05-19 00:51:00,74.1,66.0,30.00,SW,225,0.0,0.0,76,0.00,,,0.00,WSDL version 420,2013-05-19 04:51:00,
2013-05-19 00:56:00,73.9,65.9,30.00,SW,225,0.0,0.0,76,0.00,,,0.00,WSDL version 420,2013-05-19 04:56:00,
2013-05-19 01:01:00,73.8,65.7,29.97,WSW,240,0.0,0.0,76,0.00,,,0.00,WSDL version 420,2013-05-19 05:01:00,
2013-05-19 01:06:00,73.8,66.0,29.97,NW,304,0.0,0.0,77,0.00,,,0.00,WSDL version 420,2013-05-19 05:06:00,
2013-05-19 01:11:00,73.8,66.1,29.97,South,180,0.0,0.0,77,0.00,,,0.00,WSDL version 420,2013-05-19 05:11:00,
2013-05-19 01:16:00,73.8,66.1,29.97,South,180,0.0,0.0,77,0.00,,,0.00,WSDL version 420,2013-05-19 05:16:00,
2013-05-19 01:21:00,73.8,66.3,29.97,South,180,0.0,0.0,78,0.00,,,0.00,WSDL version 420,2013-05-19 05:21:00,
2013-05-19 01:26:00,73.6,66.3,29.97,South,180,0.0,0.0,78,0.00,,,0.00,WSDL version 420,2013-05-19 05:26:00,
2013-05-19 01:31:00,73.6,66.3,29.97,South,180,0.0,0.0,78,0.00,,,0.00,WSDL version 420,2013-05-19 05:31:00,
2013-05-19 01:36:00,73.6,66.4,29.97,West,270,0.0,0.0,79,0.00,,,0.00,WSDL version 420,2013-05-19 05:36:00,
2013-05-19 01:41:00,73.4,66.5,29.97,West,270,0.0,0.0,79,0.00,,,0.00,WSDL version 420,2013-05-19 05:41:00,
2013-05-19 01:46:00,73.4,66.5,29.97,West,270,0.0,0.0,79,0.00,,,0.00,WSDL version 420,2013-05-19 05:46:00,
2013-05-19 01:51:00,73.2,66.7,29.97,WNW,293,0.0,0.0,80,0.00,,,0.00,WSDL version 420,2013-05-19 05:51:00,
2013-05-19 01:56:00,73.2,66.7,29.97,WNW,293,0.0,0.0,80,0.00,,,0.00,WSDL version 420,2013-05-19 05:56:00,
2013-05-19 02:01:00,73.2,66.7,29.94,WNW,293,0.0,0.0,80,0.00,,,0.00,WSDL version 420,2013-05-19 06:01:00,
2013-05-19 02:06:00,73.3,66.8,29.94,West,270,0.0,0.0,80,0.00,,,0.00,WSDL version 420,2013-05-19 06:06:00,
2013-05-19 02:11:00,73.4,66.9,29.94,West,270,0.0,0.0,80,0.00,,,0.00,WSDL version 420,2013-05-19 06:11:00,
2013-05-19 02:16:00,73.3,66.8,29.97,West,270,0.0,0.0,80,0.00,,,0.00,WSDL version 420,2013-05-19 06:16:00,
2013-05-19 02:21:00,73.2,66.7,29.97,West,270,0.0,0.0,80,0.00,,,0.00,WSDL version 420,2013-05-19 06:21:00,
2013-05-19 02:26:00,73.3,67.0,29.97,West,270,0.0,0.0,80,0.00,,,0.00,WSDL version 420,2013-05-19 06:26:00,
2013-05-19 02:31:00,73.4,66.9,29.97,West,270,0.0,0.0,80,0.00,,,0.00,WSDL version 420,2013-05-19 06:31:00,
2013-05-19 02:36:00,73.4,66.9,29.97,West,270,0.0,0.0,80,0.00,,,0.00,WSDL version 420,2013-05-19 06:36:00,
2013-05-19 02:41:00,73.4,67.1,29.97,West,270,0.0,0.0,80,0.00,,,0.00,WSDL version 420,2013-05-19 06:41:00,
2013-05-19 02:46:00,73.4,66.9,29.97,West,270,0.0,0.0,80,0.00,,,0.00,WSDL version 420,2013-05-19 06:46:00,
2013-05-19 02:51:00,73.2,67.1,29.97,West,270,0.0,0.0,81,0.00,,,0.00,WSDL version 420,2013-05-19 06:51:00,
2013-05-19 02:56:00,73.1,66.6,29.97,West,270,0.0,0.0,80,0.00,,,0.00,WSDL version 420,2013-05-19 06:56:00,
2013-05-19 03:01:00,72.9,66.5,29.97,West,270,0.0,0.0,81,0.00,,,0.00,WSDL version 420,2013-05-19 07:01:00,
2013-05-19 03:06:00,72.8,66.7,29.97,West,270,0.0,0.0,81,0.00,,,0.00,WSDL version 420,2013-05-19 07:06:00,
2013-05-19 03:11:00,72.7,66.6,29.97,West,270,0.0,0.0,81,0.00,,,0.00,WSDL version 420,2013-05-19 07:11:00,
2013-05-19 03:16:00,72.5,66.4,29.97,West,270,0.0,0.0,81,0.00,,,0.00,WSDL version 420,2013-05-19 07:16:00,
2013-05-19 03:21:00,72.5,66.6,29.97,West,270,0.0,0.0,82,0.00,,,0.00,WSDL version 420,2013-05-19 07:21:00,
2013-05-19 03:26:00,72.4,66.6,29.97,West,270,0.0,0.0,82,0.00,,,0.00,WSDL version 420,2013-05-19 07:26:00,
2013-05-19 03:31:00,72.3,66.6,29.97,West,270,0.0,0.0,82,0.00,,,0.00,WSDL version 420,2013-05-19 07:31:00,
2013-05-19 03:36:00,72.1,66.4,29.97,West,270,0.0,0.0,82,0.00,,,0.00,WSDL version 420,2013-05-19 07:36:00,
2013-05-19 03:41:00,72.0,66.3,29.97,West,270,0.0,0.0,82,0.00,,,0.00,WSDL version 420,2013-05-19 07:41:00,
2013-05-19 03:46:00,71.9,66.4,29.97,West,270,0.0,0.0,83,0.00,,,0.00,WSDL version 420,2013-05-19 07:46:00,
2013-05-19 03:51:00,71.8,66.5,29.97,West,270,0.0,0.0,83,0.00,,,0.00,WSDL version 420,2013-05-19 07:51:00,
2013-05-19 03:56:00,71.7,66.4,29.97,West,270,0.0,0.0,83,0.00,,,0.00,WSDL version 420,2013-05-19 07:56:00,
2013-05-19 04:01:00,71.6,66.3,29.97,West,270,0.0,0.0,83,0.00,,,0.00,WSDL version 420,2013-05-19 08:01:00,
2013-05-19 04:06:00,71.5,66.4,29.97,West,270,0.0,0.0,84,0.00,,,0.00,WSDL version 420,2013-05-19 08:06:00,
2013-05-19 04:11:00,71.4,66.5,29.97,West,270,0.0,0.0,84,0.00,,,0.00,WSDL version 420,2013-05-19 08:11:00,
2013-05-19 04:16:00,71.4,66.4,29.97,West,270,0.0,0.0,84,0.00,,,0.00,WSDL version 420,2013-05-19 08:16:00,
2013-05-19 04:21:00,71.2,66.4,29.97,West,270,0.0,0.0,86,0.00,,,0.00,WSDL version 420,2013-05-19 08:21:00,
2013-05-19 04:26:00,71.2,66.7,29.97,West,270,0.0,0.0,86,0.00,,,0.00,WSDL version 420,2013-05-19 08:26:00,
2013-05-19 04:31:00,71.1,66.6,29.97,West,270,0.0,0.0,86,0.00,,,0.00,WSDL version 420,2013-05-19 08:31:00,
2013-05-19 04:36:00,71.1,66.5,29.97,West,270,0.0,0.0,86,0.00,,,0.00,WSDL version 420,2013-05-19 08:36:00,
2013-05-19 04:41:00,71.1,66.5,29.97,West,270,0.0,0.0,86,0.00,,,0.00,WSDL version 420,2013-05-19 08:41:00,
2013-05-19 04:46:00,70.9,66.4,29.97,West,270,0.0,0.0,86,0.00,,,0.00,WSDL version 420,2013-05-19 08:46:00,
2013-05-19 04:51:00,70.9,66.3,29.97,West,270,0.0,0.0,86,0.00,,,0.00,WSDL version 420,2013-05-19 08:51:00,
2013-05-19 04:56:00,70.9,66.3,29.97,West,270,0.0,0.0,86,0.00,,,0.00,WSDL version 420,2013-05-19 08:56:00,
2013-05-19 05:01:00,71.0,66.8,29.97,West,270,0.0,0.0,87,0.00,,,0.00,WSDL version 420,2013-05-19 09:01:00,
2013-05-19 05:06:00,70.9,66.8,29.97,West,270,0.0,0.0,87,0.00,,,0.00,WSDL version 420,2013-05-19 09:06:00,
2013-05-19 05:11:00,70.9,66.7,29.97,West,270,0.0,0.0,87,0.00,,,0.00,WSDL version 420,2013-05-19 09:11:00,
2013-05-19 05:16:00,70.8,66.6,29.97,West,270,0.0,0.0,87,0.00,,,0.00,WSDL version 420,2013-05-19 09:16:00,
2013-05-19 05:21:00,70.7,66.5,29.97,West,270,0.0,0.0,87,0.00,,,0.00,WSDL version 420,2013-05-19 09:21:00,
2013-05-19 05:26:00,70.7,66.5,29.97,West,270,0.0,0.0,87,0.00,,,0.00,WSDL version 420,2013-05-19 09:26:00,
2013-05-19 05:31:00,70.6,66.5,29.97,West,270,0.0,0.0,87,0.00,,,0.00,WSDL version 420,2013-05-19 09:31:00,
2013-05-19 05:36:00,70.5,66.4,29.97,West,270,0.0,0.0,87,0.00,,,0.00,WSDL version 420,2013-05-19 09:36:00,
2013-05-19 05:41:00,70.5,66.7,29.97,West,270,0.0,0.0,88,0.00,,,0.00,WSDL version 420,2013-05-19 09:41:00,
2013-05-19 05:46:00,70.4,66.6,29.97,West,270,0.0,0.0,88,0.00,,,0.00,WSDL version 420,2013-05-19 09:46:00,
2013-05-19 05:51:00,70.3,66.5,29.97,West,270,0.0,0.0,88,0.00,,,0.00,WSDL version 420,2013-05-19 09:51:00,
2013-05-19 05:56:00,70.2,66.4,29.97,West,270,0.0,0.0,88,0.00,,,0.00,WSDL version 420,2013-05-19 09:56:00,
2013-05-19 06:01:00,70.2,66.4,29.97,West,270,0.0,0.0,88,0.00,,,0.00,WSDL version 420,2013-05-19 10:01:00,
2013-05-19 06:06:00,70.2,66.4,29.97,West,270,0.0,0.0,88,0.00,,,0.00,WSDL version 420,2013-05-19 10:06:00,
2013-05-19 06:11:00,70.1,66.3,29.97,West,270,0.0,0.0,88,0.00,,,0.00,WSDL version 420,2013-05-19 10:11:00,
2013-05-19 06:16:00,70.0,66.2,29.97,West,270,0.0,0.0,88,0.00,,,0.00,WSDL version 420,2013-05-19 10:16:00,
2013-05-19 06:21:00,70.0,66.2,29.97,West,270,0.0,0.0,88,0.00,,,0.00,WSDL version 420,2013-05-19 10:21:00,
2013-05-19 06:26:00,69.8,66.0,29.97,West,270,0.0,0.0,88,0.00,,,0.00,WSDL version 420,2013-05-19 10:26:00,
2013-05-19 06:31:00,69.8,66.0,29.97,West,270,0.0,0.0,88,0.00,,,0.00,WSDL version 420,2013-05-19 10:31:00,
2013-05-19 06:36:00,69.8,66.0,29.97,West,270,0.0,0.0,88,0.00,,,0.00,WSDL version 420,2013-05-19 10:36:00,
2013-05-19 06:41:00,69.8,66.0,29.97,West,270,0.0,0.0,88,0.00,,,0.00,WSDL version 420,2013-05-19 10:41:00,
2013-05-19 06:46:00,69.8,66.2,29.94,West,270,0.0,0.0,89,0.00,,,0.00,WSDL version 420,2013-05-19 10:46:00,
2013-05-19 06:51:00,69.9,66.5,29.94,West,270,0.0,0.0,89,0.00,,,0.00,WSDL version 420,2013-05-19 10:51:00,
2013-05-19 06:56:00,70.0,66.6,29.94,West,270,0.0,0.0,89,0.00,,,0.00,WSDL version 420,2013-05-19 10:56:00,
2013-05-19 07:01:00,70.1,66.6,29.97,West,270,0.0,0.0,89,0.00,,,0.00,WSDL version 420,2013-05-19 11:01:00,
2013-05-19 07:06:00,70.2,66.8,29.97,West,270,0.0,0.0,89,0.00,,,0.00,WSDL version 420,2013-05-19 11:06:00,
2013-05-19 07:11:00,70.5,67.4,29.97,North,0,0.0,0.0,90,0.00,,,0.00,WSDL version 420,2013-05-19 11:11:00,
2013-05-19 07:16:00,70.8,67.8,29.97,West,270,0.0,0.0,90,0.00,,,0.00,WSDL version 420,2013-05-19 11:16:00,
2013-05-19 07:21:00,71.3,68.2,29.97,West,270,0.0,0.0,90,0.00,,,0.00,WSDL version 420,2013-05-19 11:21:00,
2013-05-19 07:26:00,71.8,68.7,29.97,West,270,0.0,0.0,90,0.00,,,0.00,WSDL version 420,2013-05-19 11:26:00,
2013-05-19 07:31:00,72.2,69.1,29.97,West,270,0.0,0.0,90,0.00,,,0.00,WSDL version 420,2013-05-19 11:31:00,
2013-05-19 07:36:00,72.6,69.5,29.97,West,270,0.0,0.0,90,0.00,,,0.00,WSDL version 420,2013-05-19 11:36:00,
2013-05-19 07:41:00,73.0,69.8,29.97,West,270,0.0,0.0,90,0.00,,,0.00,WSDL version 420,2013-05-19 11:41:00,
2013-05-19 07:46:00,73.7,70.2,29.97,West,274,0.0,0.0,89,0.00,,,0.00,WSDL version 420,2013-05-19 11:46:00,
2013-05-19 07:51:00,74.3,70.9,29.97,SSE,158,0.0,0.0,89,0.00,,,0.00,WSDL version 420,2013-05-19 11:51:00,
2013-05-19 07:56:00,75.0,71.0,29.97,ESE,113,0.0,0.0,87,0.00,,,0.00,WSDL version 420,2013-05-19 11:56:00,
2013-05-19 08:01:00,75.7,71.2,30.00,East,90,0.0,1.3,86,0.00,,,0.00,WSDL version 420,2013-05-19 12:01:00,
2013-05-19 08:06:00,76.5,71.1,30.00,South,180,0.0,1.3,82,0.00,,,0.00,WSDL version 420,2013-05-19 12:06:00,
2013-05-19 08:11:00,77.1,71.0,30.00,ESE,108,0.3,2.2,81,0.00,,,0.00,WSDL version 420,2013-05-19 12:11:00,
2013-05-19 08:16:00,78.4,71.6,30.00,SSE,148,1.0,2.9,79,0.00,,,0.00,WSDL version 420,2013-05-19 12:16:00,
2013-05-19 08:21:00,80.0,72.1,30.00,South,188,1.3,2.9,75,0.00,,,0.00,WSDL version 420,2013-05-19 12:21:00,
2013-05-19 08:26:00,81.8,72.1,30.00,SE,141,1.4,3.4,70,0.00,,,0.00,WSDL version 420,2013-05-19 12:26:00,
2013-05-19 08:31:00,83.4,71.8,30.00,East,81,0.4,3.4,67,0.00,,,0.00,WSDL version 420,2013-05-19 12:31:00,
2013-05-19 08:36:00,85.3,71.8,30.00,South,169,1.6,2.5,61,0.00,,,0.00,WSDL version 420,2013-05-19 12:36:00,
2013-05-19 08:41:00,86.9,70.9,30.00,ENE,60,1.6,4.0,58,0.00,,,0.00,WSDL version 420,2013-05-19 12:41:00,
2013-05-19 08:46:00,88.0,70.5,30.03,South,177,1.0,4.0,55,0.00,,,0.00,WSDL version 420,2013-05-19 12:46:00,
2013-05-19 08:51:00,89.1,70.4,30.03,SSW,207,1.8,4.0,54,0.00,,,0.00,WSDL version 420,2013-05-19 12:51:00,
2013-05-19 08:56:00,89.8,69.1,30.03,ESE,103,2.4,3.8,50,0.00,,,0.00,WSDL version 420,2013-05-19 12:56:00,
2013-05-19 09:01:00,90.1,67.4,30.03,SSE,148,2.1,4.3,47,0.00,,,0.00,WSDL version 420,2013-05-19 13:01:00,
2013-05-19 09:06:00,90.0,65.9,30.03,NE,49,2.0,4.7,45,0.00,,,0.00,WSDL version 420,2013-05-19 13:06:00,
2013-05-19 09:11:00,90.6,66.3,30.03,ESE,106,1.1,4.9,43,0.00,,,0.00,WSDL version 420,2013-05-19 13:11:00,
2013-05-19 09:16:00,90.2,65.1,30.03,SSW,199,2.8,4.9,44,0.00,,,0.00,WSDL version 420,2013-05-19 13:16:00,
2013-05-19 09:21:00,91.0,65.4,30.03,SE,145,1.3,4.3,44,0.00,,,0.00,WSDL version 420,2013-05-19 13:21:00,
2013-05-19 09:26:00,91.2,64.2,30.03,East,84,2.9,4.0,41,0.00,,,0.00,WSDL version 420,2013-05-19 13:26:00,
2013-05-19 09:31:00,91.9,64.5,30.03,ENE,64,3.1,6.7,39,0.00,,,0.00,WSDL version 420,2013-05-19 13:31:00,
2013-05-19 09:36:00,92.1,64.3,30.03,East,98,2.3,6.9,40,0.00,,,0.00,WSDL version 420,2013-05-19 13:36:00,
2013-05-19 09:46:00,92.8,65.0,30.03,SSE,167,1.7,4.0,40,0.00,,,0.00,WSDL version 420,2013-05-19 13:46:00,
2013-05-19 09:51:00,93.4,65.5,30.03,South,190,3.5,6.5,40,0.00,,,0.00,WSDL version 420,2013-05-19 13:51:00,
2013-05-19 09:56:00,92.7,64.8,30.03,NNE,30,1.6,6.5,40,0.00,,,0.00,WSDL version 420,2013-05-19 13:56:00,
2013-05-19 10:01:00,92.5,64.8,30.03,South,173,2.6,3.8,39,0.00,,,0.00,WSDL version 420,2013-05-19 14:01:00,
2013-05-19 10:06:00,92.6,64.1,30.03,NE,50,2.6,6.0,39,0.00,,,0.00,WSDL version 420,2013-05-19 14:06:00,
2013-05-19 10:11:00,92.5,63.6,30.03,ENE,61,2.5,6.0,39,0.00,,,0.00,WSDL version 420,2013-05-19 14:11:00,
2013-05-19 10:16:00,93.0,64.2,30.03,ENE,74,2.1,4.9,38,0.00,,,0.00,WSDL version 420,2013-05-19 14:16:00,
2013-05-19 10:21:00,92.8,63.5,30.03,NW,326,2.6,4.3,38,0.00,,,0.00,WSDL version 420,2013-05-19 14:21:00,
2013-05-19 10:26:00,92.4,62.7,30.03,ESE,109,3.4,6.5,38,0.00,,,0.00,WSDL version 420,2013-05-19 14:26:00,
2013-05-19 10:31:00,91.0,61.4,30.03,ENE,62,2.3,6.5,36,0.00,,,0.00,WSDL version 420,2013-05-19 14:31:00,
2013-05-19 10:36:00,88.6,60.2,30.03,East,86,2.1,5.8,39,0.00,,,0.00,WSDL version 420,2013-05-19 14:36:00,
2013-05-19 10:41:00,87.8,61.2,30.03,ESE,116,1.8,5.4,42,0.00,,,0.00,WSDL version 420,2013-05-19 14:41:00,
2013-05-19 10:46:00,89.3,63.2,30.03,SE,129,1.4,6.0,42,0.00,,,0.00,WSDL version 420,2013-05-19 14:46:00,
2013-05-19 10:51:00,89.6,62.6,30.03,NE,42,2.4,6.3,41,0.00,,,0.00,WSDL version 420,2013-05-19 14:51:00,
2013-05-19 10:56:00,89.7,63.4,30.03,NW,315,1.6,6.3,42,0.00,,,0.00,WSDL version 420,2013-05-19 14:56:00,
2013-05-19 11:01:00,90.1,64.1,30.03,SSE,154,1.7,3.4,41,0.00,,,0.00,WSDL version 420,2013-05-19 15:01:00,
2013-05-19 11:06:00,88.3,61.2,30.03,East,90,3.3,5.4,41,0.00,,,0.00,WSDL version 420,2013-05-19 15:06:00,
2013-05-19 11:11:00,87.2,62.2,30.03,ESE,106,1.9,5.4,44,0.00,,,0.00,WSDL version 420,2013-05-19 15:11:00,
2013-05-19 11:16:00,87.2,62.5,30.03,SSE,158,1.8,3.6,45,0.00,,,0.00,WSDL version 420,2013-05-19 15:16:00,
2013-05-19 11:21:00,86.9,62.9,30.03,SE,129,3.6,6.0,44,0.00,,,0.00,WSDL version 420,2013-05-19 15:21:00,
2013-05-19 11:26:00,86.2,62.1,30.03,South,188,1.3,6.0,45,0.00,,,0.00,WSDL version 420,2013-05-19 15:26:00,
2013-05-19 11:31:00,87.6,64.2,30.03,East,94,2.1,5.4,45,0.00,,,0.00,WSDL version 420,2013-05-19 15:31:00,
2013-05-19 11:36:00,87.0,62.1,30.03,ENE,59,3.8,4.9,43,0.00,,,0.00,WSDL version 420,2013-05-19 15:36:00,
2013-05-19 11:41:00,88.2,63.5,30.03,ESE,113,3.0,4.9,44,0.00,,,0.00,WSDL version 420,2013-05-19 15:41:00,
2013-05-19 11:46:00,89.5,64.3,30.03,ENE,58,3.7,7.4,41,0.00,,,0.00,WSDL version 420,2013-05-19 15:46:00,
2013-05-19 11:51:00,89.9,64.4,30.03,NE,34,3.7,7.4,43,0.00,,,0.00,WSDL version 420,2013-05-19 15:51:00,
2013-05-19 11:56:00,90.9,65.6,30.03,NE,51,1.7,5.8,44,0.00,,,0.00,WSDL version 420,2013-05-19 15:56:00,
2013-05-19 12:01:00,90.4,64.4,30.03,South,180,2.7,4.3,42,0.00,,,0.00,WSDL version 420,2013-05-19 16:01:00,
2013-05-19 12:06:00,90.9,64.7,30.03,SE,141,2.1,4.3,41,0.00,,,0.00,WSDL version 420,2013-05-19 16:06:00,
2013-05-19 12:11:00,90.7,63.5,30.03,NE,39,4.2,5.8,40,0.00,,,0.00,WSDL version 420,2013-05-19 16:11:00,
2013-05-19 12:16:00,88.7,61.8,30.03,ENE,60,2.8,5.8,41,0.00,,,0.00,WSDL version 420,2013-05-19 16:16:00,
2013-05-19 12:21:00,88.0,61.8,30.03,NW,319,2.3,4.0,42,0.00,,,0.00,WSDL version 420,2013-05-19 16:21:00,
2013-05-19 12:26:00,87.7,62.0,30.03,East,87,2.6,5.4,43,0.00,,,0.00,WSDL version 420,2013-05-19 16:26:00,
2013-05-19 12:31:00,89.4,63.5,30.00,ENE,71,3.4,5.4,41,0.00,,,0.00,WSDL version 420,2013-05-19 16:31:00,
2013-05-19 12:36:00,90.1,64.1,30.00,ENE,62,3.5,5.4,41,0.00,,,0.00,WSDL version 420,2013-05-19 16:36:00,
2013-05-19 12:41:00,88.6,61.9,30.00,NE,45,4.9,6.5,41,0.00,,,0.00,WSDL version 420,2013-05-19 16:41:00,
2013-05-19 12:46:00,88.2,61.9,30.00,ENE,64,4.2,6.5,42,0.00,,,0.00,WSDL version 420,2013-05-19 16:46:00,
2013-05-19 12:51:00,89.6,63.3,30.00,East,93,4.1,6.3,41,0.00,,,0.00,WSDL version 420,2013-05-19 16:51:00,
2013-05-19 12:56:00,90.6,64.9,30.00,ENE,74,3.2,6.3,41,0.00,,,0.00,WSDL version 420,2013-05-19 16:56:00,
2013-05-19 13:01:00,90.7,64.2,29.97,SE,132,1.7,6.0,42,0.00,,,0.00,WSDL version 420,2013-05-19 17:01:00,
2013-05-19 13:06:00,90.7,63.4,29.97,SE,143,3.5,7.8,41,0.00,,,0.00,WSDL version 420,2013-05-19 17:06:00,
2013-05-19 13:11:00,90.2,62.9,29.97,East,83,3.2,7.8,39,0.00,,,0.00,WSDL version 420,2013-05-19 17:11:00,
2013-05-19 13:16:00,89.2,61.9,29.97,NE,34,3.5,7.6,40,0.00,,,0.00,WSDL version 420,2013-05-19 17:16:00,
2013-05-19 13:21:00,88.0,60.7,29.97,East,90,3.5,7.6,40,0.00,,,0.00,WSDL version 420,2013-05-19 17:21:00,
2013-05-19 13:26:00,87.4,60.9,29.97,East,84,4.0,6.5,41,0.00,,,0.00,WSDL version 420,2013-05-19 17:26:00,
2013-05-19 13:31:00,86.9,60.4,29.97,ENE,60,4.1,6.5,41,0.00,,,0.00,WSDL version 420,2013-05-19 17:31:00,
2013-05-19 13:36:00,86.6,61.0,29.97,ENE,64,3.5,9.6,42,0.00,,,0.00,WSDL version 420,2013-05-19 17:36:00,
2013-05-19 13:41:00,86.1,60.1,29.97,SE,143,3.9,9.6,42,0.00,,,0.00,WSDL version 420,2013-05-19 17:41:00,
2013-05-19 13:46:00,86.2,61.1,29.97,ENE,64,1.5,6.3,44,0.00,,,0.00,WSDL version 420,2013-05-19 17:46:00,
2013-05-19 13:51:00,86.2,61.1,29.97,ENE,68,3.4,8.1,43,0.00,,,0.00,WSDL version 420,2013-05-19 17:51:00,
2013-05-19 13:56:00,86.5,61.6,29.97,ENE,73,3.7,8.1,43,0.00,,,0.00,WSDL version 420,2013-05-19 17:56:00,
2013-05-19 14:01:00,87.6,62.1,29.97,East,83,4.0,6.0,42,0.00,,,0.00,WSDL version 420,2013-05-19 18:01:00,
2013-05-19 14:06:00,88.8,61.7,29.97,NE,53,4.0,6.0,39,0.00,,,0.00,WSDL version 420,2013-05-19 18:06:00,
2013-05-19 14:11:00,88.2,59.9,29.97,ENE,64,4.5,5.8,38,0.00,,,0.00,WSDL version 420,2013-05-19 18:11:00,
2013-05-19 14:16:00,88.6,60.1,29.97,East,83,3.8,8.5,39,0.00,,,0.00,WSDL version 420,2013-05-19 18:16:00,
2013-05-19 14:21:00,89.3,60.4,29.97,NE,38,4.1,8.5,37,0.00,,,0.00,WSDL version 420,2013-05-19 18:21:00,
2013-05-19 14:26:00,89.3,60.4,29.97,East,90,5.1,7.6,38,0.00,,,0.00,WSDL version 420,2013-05-19 18:26:00,
2013-05-19 14:31:00,88.8,59.4,29.97,ENE,58,2.3,7.6,37,0.00,,,0.00,WSDL version 420,2013-05-19 18:31:00,
2013-05-19 14:36:00,88.3,59.5,29.97,NE,34,4.5,6.5,38,0.00,,,0.00,WSDL version 420,2013-05-19 18:36:00,
2013-05-19 14:41:00,88.0,59.7,29.97,East,100,3.5,6.5,40,0.00,,,0.00,WSDL version 420,2013-05-19 18:41:00,
2013-05-19 14:46:00,87.1,59.3,29.94,East,90,3.8,5.6,39,0.00,,,0.00,WSDL version 420,2013-05-19 18:46:00,
2013-05-19 14:51:00,86.4,59.3,29.94,NE,45,2.2,5.4,39,0.00,,,0.00,WSDL version 420,2013-05-19 18:51:00,
2013-05-19 14:56:00,86.2,59.5,29.94,ENE,73,3.4,6.3,41,0.00,,,0.00,WSDL version 420,2013-05-19 18:56:00,
2013-05-19 15:01:00,86.4,60.5,29.97,NE,55,3.2,6.3,42,0.00,,,0.00,WSDL version 420,2013-05-19 19:01:00,
2013-05-19 15:06:00,87.0,61.1,29.97,ENE,71,3.7,6.3,41,0.00,,,0.00,WSDL version 420,2013-05-19 19:06:00,
2013-05-19 15:11:00,87.7,61.2,29.97,ESE,113,2.9,6.3,42,0.00,,,0.00,WSDL version 420,2013-05-19 19:11:00,
2013-05-19 15:16:00,89.1,62.5,29.94,ESE,118,3.7,6.0,41,0.00,,,0.00,WSDL version 420,2013-05-19 19:16:00,
2013-05-19 15:21:00,89.9,62.6,29.94,South,180,3.3,7.2,39,0.00,,,0.00,WSDL version 420,2013-05-19 19:21:00,
2013-05-19 15:26:00,90.1,62.7,29.94,SE,129,3.0,7.2,40,0.00,,,0.00,WSDL version 420,2013-05-19 19:26:00,
2013-05-19 15:31:00,90.1,61.6,29.94,ENE,60,2.9,6.5,39,0.00,,,0.00,WSDL version 420,2013-05-19 19:31:00,
2013-05-19 15:36:00,90.0,61.0,29.94,ESE,113,2.0,6.5,38,0.00,,,0.00,WSDL version 420,2013-05-19 19:36:00,
2013-05-19 15:41:00,88.3,59.4,29.94,ESE,113,5.3,5.3,38,0.00,,,0.00,WSDL version 420,2013-05-19 19:41:00,
2013-05-19 15:46:00,87.3,59.3,29.97,ENE,68,2.6,6.5,39,0.00,,,0.00,WSDL version 420,2013-05-19 19:46:00,
2013-05-19 15:51:00,86.6,59.0,29.97,ESE,107,2.7,6.5,40,0.00,,,0.00,WSDL version 420,2013-05-19 19:51:00,
2013-05-19 15:56:00,85.8,59.1,29.97,ENE,68,2.7,3.8,41,0.00,,,0.00,WSDL version 420,2013-05-19 19:56:00,
2013-05-19 16:01:00,85.3,58.9,29.94,ENE,68,2.7,4.0,41,0.00,,,0.00,WSDL version 420,2013-05-19 20:01:00,
2013-05-19 16:06:00,85.0,59.3,29.94,East,87,3.8,5.4,42,0.00,,,0.00,WSDL version 420,2013-05-19 20:06:00,
2013-05-19 16:11:00,84.8,59.9,29.94,NE,56,3.4,6.0,44,0.00,,,0.00,WSDL version 420,2013-05-19 20:11:00,
2013-05-19 16:16:00,84.7,61.0,29.94,SE,131,3.0,6.0,45,0.00,,,0.00,WSDL version 420,2013-05-19 20:16:00,
2013-05-19 16:21:00,84.4,60.8,29.94,East,90,3.4,4.9,45,0.00,,,0.00,WSDL version 420,2013-05-19 20:21:00,
2013-05-19 16:26:00,84.6,61.1,29.94,NE,56,4.5,5.6,46,0.00,,,0.00,WSDL version 420,2013-05-19 20:26:00,
2013-05-19 16:31:00,84.4,61.4,29.94,ESE,113,4.3,6.5,46,0.00,,,0.00,WSDL version 420,2013-05-19 20:31:00,
2013-05-19 16:36:00,84.3,61.4,29.94,NE,53,3.5,6.5,46,0.00,,,0.00,WSDL version 420,2013-05-19 20:36:00,
2013-05-19 16:41:00,83.9,61.9,29.94,East,83,4.3,6.0,48,0.00,,,0.00,WSDL version 420,2013-05-19 20:41:00,
2013-05-19 16:46:00,84.2,62.8,29.91,ESE,103,4.2,5.8,49,0.00,,,0.00,WSDL version 420,2013-05-19 20:46:00,
2013-05-19 16:51:00,84.6,63.0,29.91,East,101,2.7,6.3,48,0.00,,,0.00,WSDL version 420,2013-05-19 20:51:00,
2013-05-19 16:56:00,84.6,63.6,29.91,WSW,248,2.9,6.3,50,0.00,,,0.00,WSDL version 420,2013-05-19 20:56:00,
2013-05-19 17:01:00,85.2,64.7,29.91,NW,325,3.7,6.0,52,0.00,,,0.00,WSDL version 420,2013-05-19 21:01:00,
2013-05-19 17:06:00,86.4,65.0,29.91,SSE,158,3.4,6.0,48,0.00,,,0.00,WSDL version 420,2013-05-19 21:06:00,
2013-05-19 17:11:00,87.0,64.2,29.91,ENE,68,2.7,4.0,44,0.00,,,0.00,WSDL version 420,2013-05-19 21:11:00,
2013-05-19 17:16:00,86.8,62.9,29.91,NE,55,3.4,6.3,45,0.00,,,0.00,WSDL version 420,2013-05-19 21:16:00,
2013-05-19 17:21:00,86.7,63.0,29.91,SSE,158,3.7,6.3,46,0.00,,,0.00,WSDL version 420,2013-05-19 21:21:00,
2013-05-19 17:26:00,86.8,62.9,29.91,North,8,4.1,5.8,45,0.00,,,0.00,WSDL version 420,2013-05-19 21:26:00,
2013-05-19 17:31:00,86.8,62.1,29.91,NE,54,3.8,7.2,42,0.00,,,0.00,WSDL version 420,2013-05-19 21:31:00,
2013-05-19 17:36:00,86.1,59.7,29.91,North,351,3.4,7.2,41,0.00,,,0.00,WSDL version 420,2013-05-19 21:36:00,
2013-05-19 17:41:00,85.8,59.9,29.91,ENE,62,3.9,5.6,42,0.00,,,0.00,WSDL version 420,2013-05-19 21:41:00,
2013-05-19 17:46:00,85.6,59.9,29.91,NE,41,4.1,6.0,42,0.00,,,0.00,WSDL version 420,2013-05-19 21:46:00,
2013-05-19 17:51:00,85.1,59.9,29.91,ENE,73,4.4,6.5,43,0.00,,,0.00,WSDL version 420,2013-05-19 21:51:00,
2013-05-19 17:56:00,84.9,60.4,29.91,NE,45,3.0,6.5,43,0.00,,,0.00,WSDL version 420,2013-05-19 21:56:00,
2013-05-19 18:01:00,84.7,59.6,29.91,ENE,75,4.6,7.4,42,0.00,,,0.00,WSDL version 420,2013-05-19 22:01:00,
2013-05-19 18:06:00,84.5,59.1,29.91,ENE,75,5.2,7.4,42,0.00,,,0.00,WSDL version 420,2013-05-19 22:06:00,
2013-05-19 18:11:00,84.3,59.1,29.91,ESE,113,4.9,7.4,42,0.00,,,0.00,WSDL version 420,2013-05-19 22:11:00,
2013-05-19 18:16:00,84.2,59.3,29.91,NE,45,4.9,7.4,43,0.00,,,0.00,WSDL version 420,2013-05-19 22:16:00,
2013-05-19 18:21:00,84.0,59.5,29.91,East,79,5.1,7.4,44,0.00,,,0.00,WSDL version 420,2013-05-19 22:21:00,
2013-05-19 18:26:00,83.8,60.3,29.91,ENE,68,3.5,7.4,45,0.00,,,0.00,WSDL version 420,2013-05-19 22:26:00,
2013-05-19 18:31:00,83.5,59.8,29.91,NNW,332,4.1,7.4,45,0.00,,,0.00,WSDL version 420,2013-05-19 22:31:00,
2013-05-19 18:36:00,83.1,60.0,29.91,ENE,68,3.4,6.5,46,0.00,,,0.00,WSDL version 420,2013-05-19 22:36:00,
2013-05-19 18:41:00,82.9,59.7,29.91,North,11,4.1,6.5,45,0.00,,,0.00,WSDL version 420,2013-05-19 22:41:00,
2013-05-19 18:46:00,82.6,60.0,29.91,ENE,68,3.5,5.6,47,0.00,,,0.00,WSDL version 420,2013-05-19 22:46:00,
2013-05-19 18:51:00,82.3,60.7,29.91,South,180,3.4,5.4,49,0.00,,,0.00,WSDL version 420,2013-05-19 22:51:00,
2013-05-19 18:56:00,82.0,61.0,29.91,NE,56,2.8,5.8,49,0.00,,,0.00,WSDL version 420,2013-05-19 22:56:00,
2013-05-19 19:01:00,81.7,61.4,29.94,NE,45,4.3,5.8,50,0.00,,,0.00,WSDL version 420,2013-05-19 23:01:00,
2013-05-19 19:06:00,81.5,61.6,29.94,WNW,293,3.8,7.6,51,0.00,,,0.00,WSDL version 420,2013-05-19 23:06:00,
2013-05-19 19:11:00,81.2,62.1,29.94,NE,34,3.2,7.6,53,0.00,,,0.00,WSDL version 420,2013-05-19 23:11:00,
2013-05-19 19:16:00,81.1,62.6,29.94,ESE,120,2.2,6.9,53,0.00,,,0.00,WSDL version 420,2013-05-19 23:16:00,
2013-05-19 19:21:00,80.9,62.5,29.94,South,191,3.1,6.9,54,0.00,,,0.00,WSDL version 420,2013-05-19 23:21:00,
2013-05-19 19:26:00,80.6,62.8,29.94,ESE,113,3.6,6.9,55,0.00,,,0.00,WSDL version 420,2013-05-19 23:26:00,
2013-05-19 19:31:00,80.4,62.8,29.94,North,0,0.0,4.3,55,0.00,,,0.00,WSDL version 420,2013-05-19 23:31:00,
2013-05-19 19:36:00,80.0,62.9,29.94,North,0,0.0,4.3,56,0.00,,,0.00,WSDL version 420,2013-05-19 23:36:00,
2013-05-19 19:41:00,79.7,63.1,29.94,NE,45,2.0,4.3,58,0.00,,,0.00,WSDL version 420,2013-05-19 23:41:00,
2013-05-19 19:46:00,79.4,63.4,29.94,ENE,64,2.9,4.0,58,0.00,,,0.00,WSDL version 420,2013-05-19 23:46:00,
2013-05-19 19:51:00,79.2,63.5,29.94,NNE,27,2.9,5.8,59,0.00,,,0.00,WSDL version 420,2013-05-19 23:51:00,
2013-05-19 19:56:00,79.0,63.6,29.94,NE,54,3.1,6.5,60,0.00,,,0.00,WSDL version 420,2013-05-19 23:56:00,
2013-05-19 20:01:00,78.8,64.0,29.94,ENE,64,3.9,6.5,61,0.00,,,0.00,WSDL version 420,2013-05-20 00:01:00,
2013-05-19 20:06:00,78.6,64.4,29.94,East,90,3.4,7.4,62,0.00,,,0.00,WSDL version 420,2013-05-20 00:06:00,
2013-05-19 20:11:00,78.4,64.4,29.94,ENE,72,3.7,7.4,62,0.00,,,0.00,WSDL version 420,2013-05-20 00:11:00,
2013-05-19 20:16:00,78.3,64.2,29.94,East,84,3.9,7.8,62,0.00,,,0.00,WSDL version 420,2013-05-20 00:16:00,
2013-05-19 20:21:00,78.1,64.4,29.94,ENE,60,3.3,7.8,63,0.00,,,0.00,WSDL version 420,2013-05-20 00:21:00,
2013-05-19 20:26:00,78.0,64.4,29.94,ENE,68,3.4,3.8,63,0.00,,,0.00,WSDL version 420,2013-05-20 00:26:00,
2013-05-19 20:31:00,77.9,64.6,29.94,ENE,68,3.8,5.6,64,0.00,,,0.00,WSDL version 420,2013-05-20 00:31:00,
2013-05-19 20:36:00,77.9,64.8,29.94,ENE,68,3.1,5.6,64,0.00,,,0.00,WSDL version 420,2013-05-20 00:36:00,
2013-05-19 20:41:00,77.8,64.7,29.94,NE,55,2.4,4.9,64,0.00,,,0.00,WSDL version 420,2013-05-20 00:41:00,
2013-05-19 20:46:00,77.7,64.8,29.94,ENE,62,2.5,5.8,65,0.00,,,0.00,WSDL version 420,2013-05-20 00:46:00,
2013-05-19 20:51:00,77.7,65.0,29.94,SSE,158,2.0,5.8,65,0.00,,,0.00,WSDL version 420,2013-05-20 00:51:00,
2013-05-19 20:56:00,77.5,64.9,29.94,SSW,196,1.9,4.3,65,0.00,,,0.00,WSDL version 420,2013-05-20 00:56:00,
2013-05-19 21:01:00,77.4,64.7,29.97,East,86,2.2,3.4,65,0.00,,,0.00,WSDL version 420,2013-05-20 01:01:00,
2013-05-19 21:06:00,77.3,64.6,29.97,East,96,1.5,3.4,65,0.00,,,0.00,WSDL version 420,2013-05-20 01:06:00,
2013-05-19 21:11:00,77.2,64.5,29.97,East,98,2.1,3.6,65,0.00,,,0.00,WSDL version 420,2013-05-20 01:11:00,
2013-05-19 21:16:00,76.7,64.4,29.97,SSE,152,1.1,3.6,66,0.00,,,0.00,WSDL version 420,2013-05-20 01:16:00,
2013-05-19 21:21:00,77.0,64.8,29.97,ENE,64,1.8,3.6,66,0.00,,,0.00,WSDL version 420,2013-05-20 01:21:00,
2013-05-19 21:26:00,77.0,64.8,29.97,ENE,68,1.6,3.6,66,0.00,,,0.00,WSDL version 420,2013-05-20 01:26:00,
2013-05-19 21:31:00,77.0,64.8,29.97,East,90,0.4,3.6,66,0.00,,,0.00,WSDL version 420,2013-05-20 01:31:00,
2013-05-19 21:36:00,77.0,64.8,29.97,East,101,0.0,3.6,66,0.00,,,0.00,WSDL version 420,2013-05-20 01:36:00,
2013-05-19 21:41:00,76.9,64.9,29.97,NW,315,0.4,3.6,67,0.00,,,0.00,WSDL version 420,2013-05-20 01:41:00,
2013-05-19 21:46:00,76.8,65.0,29.97,ESE,109,0.4,2.2,67,0.00,,,0.00,WSDL version 420,2013-05-20 01:46:00,
2013-05-19 21:51:00,76.7,64.9,29.97,ENE,77,1.9,3.1,67,0.00,,,0.00,WSDL version 420,2013-05-20 01:51:00,
2013-05-19 21:56:00,76.6,64.9,29.97,East,90,0.3,3.1,67,0.00,,,0.00,WSDL version 420,2013-05-20 01:56:00,
2013-05-19 22:01:00,76.5,64.7,29.94,SE,143,1.0,2.0,67,0.00,,,0.00,WSDL version 420,2013-05-20 02:01:00,
2013-05-19 22:06:00,76.4,64.7,29.94,NNE,17,0.0,2.0,68,0.00,,,0.00,WSDL version 420,2013-05-20 02:06:00,
2013-05-19 22:11:00,76.3,65.0,29.94,NE,50,0.0,1.6,68,0.00,,,0.00,WSDL version 420,2013-05-20 02:11:00,
2013-05-19 22:16:00,76.2,64.9,29.97,SSW,203,0.0,0.9,68,0.00,,,0.00,WSDL version 420,2013-05-20 02:16:00,
2013-05-19 22:21:00,76.1,64.8,29.97,East,101,0.9,2.5,68,0.00,,,0.00,WSDL version 420,2013-05-20 02:21:00,
2013-05-19 22:26:00,76.1,64.8,29.97,East,96,1.8,3.1,68,0.00,,,0.00,WSDL version 420,2013-05-20 02:26:00,
2013-05-19 22:31:00,76.1,65.0,29.97,East,79,1.6,3.1,69,0.00,,,0.00,WSDL version 420,2013-05-20 02:31:00,
2013-05-19 22:36:00,76.1,65.2,29.97,East,90,1.6,3.4,69,0.00,,,0.00,WSDL version 420,2013-05-20 02:36:00,
2013-05-19 22:41:00,76.1,65.2,29.97,ENE,60,0.8,3.6,69,0.00,,,0.00,WSDL version 420,2013-05-20 02:41:00,
2013-05-19 22:46:00,76.1,65.2,29.97,NNE,17,1.9,3.6,69,0.00,,,0.00,WSDL version 420,2013-05-20 02:46:00,
2013-05-19 22:51:00,76.1,65.3,29.97,East,84,1.1,2.7,70,0.00,,,0.00,WSDL version 420,2013-05-20 02:51:00,
2013-05-19 22:56:00,76.1,65.6,29.97,East,86,0.0,2.7,70,0.00,,,0.00,WSDL version 420,2013-05-20 02:56:00,
2013-05-19 23:01:00,76.1,65.6,29.97,NE,45,1.2,2.2,70,0.00,,,0.00,WSDL version 420,2013-05-20 03:01:00,
2013-05-19 23:06:00,76.1,65.6,29.97,SE,124,0.0,2.2,70,0.00,,,0.00,WSDL version 420,2013-05-20 03:06:00,
2013-05-19 23:11:00,75.9,65.4,29.97,ENE,63,0.0,1.6,70,0.00,,,0.00,WSDL version 420,2013-05-20 03:11:00,
2013-05-19 23:16:00,75.9,65.4,29.97,ENE,75,0.4,2.2,70,0.00,,,0.00,WSDL version 420,2013-05-20 03:16:00,
2013-05-19 23:21:00,75.9,65.4,29.97,ENE,72,0.9,2.2,70,0.00,,,0.00,WSDL version 420,2013-05-20 03:21:00,
2013-05-19 23:26:00,75.8,65.3,29.97,SW,221,0.0,0.0,70,0.00,,,0.00,WSDL version 420,2013-05-20 03:26:00,
2013-05-19 23:31:00,75.7,65.2,29.97,NE,45,0.0,0.0,70,0.00,,,0.00,WSDL version 420,2013-05-20 03:31:00,
2013-05-19 23:36:00,75.6,65.1,29.97,East,83,0.0,0.0,70,0.00,,,0.00,WSDL version 420,2013-05-20 03:36:00,
2013-05-19 23:41:00,75.4,64.9,29.97,ENE,68,0.0,0.0,70,0.00,,,0.00,WSDL version 420,2013-05-20 03:41:00,
2013-05-19 23:46:00,75.3,65.1,29.97,East,96,0.0,0.0,71,0.00,,,0.00,WSDL version 420,2013-05-20 03:46:00,
2013-05-19 23:51:00,75.2,65.2,29.97,East,90,0.0,0.0,71,0.00,,,0.00,WSDL version 420,2013-05-20 03:51:00,
2013-05-19 23:56:00,75.1,65.3,29.97,East,90,0.0,0.0,72,0.00,,,0.00,WSDL version 420,2013-05-20 03:56:00,